Location: Glencliff
(36.1226°N, 86.7183°W)
Time: 08:32:31
(UTC+00:00)

USA 229 DEB - Pass Details

Date: 25 August 2019
Orbit: 1003 x 1210 km, 63.4° (Epoch: 31 August)

Event Time Altitude Azimuth Distance (km) Brightness Sun altitude
Rises 03:05:36 0° 330° (NNW) 3,977 7.8 -29.2°
Reaches altitude 10° 03:08:18 10° 334° (NNW) 3,043 6.9 -29.6°
Maximum altitude 03:15:34 64° 56° (NE) 1,292 3.9 -30.7°
Enters shadow 03:15:51 64° 68° (ENE) 1,298 3.9 -30.7°
